Address 0x7b7ff840f5fe27355fd1aaaf548b4d22e04c1606

Txn Hash Method
Block
From
To
Value [Txn Fee]
0xf3b21d7348abea5bd06ff02ffa9c94571a5a20218f742c7972320216768493e5Swap Exact Token...800889412022-12-07 4:16:571 hr 25 mins ago0x7b7ff840f5fe27355fd1aaaf548b4d22e04c1606OUTTrisolaris: Router0 ETH0.000007392392
0xdc500dd3d3494b07fb96fff1b121bda00e196e8ca66ab5ee33f33f9744616443Swap Exact Token...800879772022-12-07 3:58:181 hr 44 mins ago0x7b7ff840f5fe27355fd1aaaf548b4d22e04c1606OUTTrisolaris: Router0 ETH0.000007392392
0xfbd60f33ca82aa5e1769758019c466c117376bbfca38ac4302a03b0afe5e0c66Swap Exact Token...800879712022-12-07 3:58:121 hr 44 mins ago0x7b7ff840f5fe27355fd1aaaf548b4d22e04c1606OUTTrisolaris: Router0 ETH0.000007392392
0x54123c4d3c19c0c8af9654a048bc6d2bc7dc21e1b60fd6e1295d3b46705ed2ceSwap Exact Token...800874602022-12-07 3:48:321 hr 54 mins ago0x7b7ff840f5fe27355fd1aaaf548b4d22e04c1606OUTTrisolaris: Router0 ETH0.000002244512
0xf24f103eaf41947e967b6a214b09a5d2957f626b7e14c7dbc31274f0594f1eddSwap Exact Token...800874522022-12-07 3:48:231 hr 54 mins ago0x7b7ff840f5fe27355fd1aaaf548b4d22e04c1606OUTTrisolaris: Router0 ETH0.000002244512
0xae9db158b6e3e7e60a3e5cc06e8e2053c9d939d0592d300428ee0b9f2f26b876Swap Exact Token...800868982022-12-07 3:37:582 hrs 4 mins ago0x7b7ff840f5fe27355fd1aaaf548b4d22e04c1606OUTTrisolaris: Router0 ETH0.000007392392
0x50ffbd0ab360673c86a8b9ab30a06b4712bcaf2914983c96963f77006b0653a7Swap Exact Token...800826092022-12-07 2:14:083 hrs 28 mins ago0x7b7ff840f5fe27355fd1aaaf548b4d22e04c1606OUTTrisolaris: Router0 ETH0.000007400663
0x22be99259d5b159183c1a3fcf92d138a27c354f920af4b50045b780848a11c2bSwap Exact Token...800826032022-12-07 2:14:013 hrs 28 mins ago0x7b7ff840f5fe27355fd1aaaf548b4d22e04c1606OUTTrisolaris: Router0 ETH0.000007400663
0x3b0bb3a63b58c1dd2d833e949e3805fa193671469b7bf64b7bc0fb5ae6309203Swap Exact Token...800825972022-12-07 2:13:543 hrs 28 mins ago0x7b7ff840f5fe27355fd1aaaf548b4d22e04c1606OUTTrisolaris: Router0 ETH0.000007400663
0x237e987c1a37a9899fec3a2fbafe2c32dc101626ddb5e4612cb97b2c137e6e49Swap Exact Token...800825902022-12-07 2:13:473 hrs 28 mins ago0x7b7ff840f5fe27355fd1aaaf548b4d22e04c1606OUTTrisolaris: Router0 ETH0.000007400663
0xeeb918ec166addbeceb3b19ae43bf6f38d302299cc2da017a6cdf1ee2e23baf1Swap Exact Token...800825842022-12-07 2:13:403 hrs 28 mins ago0x7b7ff840f5fe27355fd1aaaf548b4d22e04c1606OUTTrisolaris: Router0 ETH0.000007400663
0x376892080d0dd16636e1565ed39f38e7476e303ba1ac9b2e122ba070d6233f8aSwap Exact Token...800825762022-12-07 2:13:303 hrs 29 mins ago0x7b7ff840f5fe27355fd1aaaf548b4d22e04c1606OUTTrisolaris: Router0 ETH0.000007400663
0xaa8d0eff826076e80ef3f5b952088b1c92602e1136221a843c7032b4abb98e33Swap Exact Token...800825702022-12-07 2:13:233 hrs 29 mins ago0x7b7ff840f5fe27355fd1aaaf548b4d22e04c1606OUTTrisolaris: Router0 ETH0.000007400663
0x96a6a260839dd5c03082cc321bed9cb6d5d5bb24638208030c94ec61fbe130e4Swap Exact Token...800825632022-12-07 2:13:153 hrs 29 mins ago0x7b7ff840f5fe27355fd1aaaf548b4d22e04c1606OUTTrisolaris: Router0 ETH0.000007400663
0x6fb412b28c30c4d64a9be3594d5ff24d0e96a3d401c0e7abe308362f0e9b5125Swap Exact Token...800825562022-12-07 2:13:063 hrs 29 mins ago0x7b7ff840f5fe27355fd1aaaf548b4d22e04c1606OUTTrisolaris: Router0 ETH0.000007400663
0x41466fc1b0671c30acb9cd1f828e2755717c99215e701d20c20a19c82567f51cSwap Exact Token...800825502022-12-07 2:12:593 hrs 29 mins ago0x7b7ff840f5fe27355fd1aaaf548b4d22e04c1606OUTTrisolaris: Router0 ETH0.000007400663
0xfe289355352e1713e04f9b5607643221836e88c51c11e00eee0dbb0a0905cea8Swap Exact Token...800825442022-12-07 2:12:523 hrs 29 mins ago0x7b7ff840f5fe27355fd1aaaf548b4d22e04c1606OUTTrisolaris: Router0 ETH0.000007400663
0x2fb875293208f800ed5998ab8fbac004092aef7472cec8d11e069f4affdccdcdSwap Exact Token...800825372022-12-07 2:12:443 hrs 29 mins ago0x7b7ff840f5fe27355fd1aaaf548b4d22e04c1606OUTTrisolaris: Router0 ETH0.000007400663
0x452c26eb071080f7c26a49eb53f46d26667295a9586219e5e64d27db818f8272Swap Exact Token...800825292022-12-07 2:12:353 hrs 29 mins ago0x7b7ff840f5fe27355fd1aaaf548b4d22e04c1606OUTTrisolaris: Router0 ETH0.000007400663
0x3540b8669210883edb60a957f4464545c10e1ee70bb0390f8be47ab88b12f3daSwap Exact Token...800825252022-12-07 2:12:313 hrs 30 mins ago0x7b7ff840f5fe27355fd1aaaf548b4d22e04c1606OUTTrisolaris: Router0 ETH0.000007400663
0x7f410fe21cdf8d8896e5447d17d55cf11e8409dbb8d71bd15cbb1e179ac96249Swap Exact Token...800825222022-12-07 2:12:283 hrs 30 mins ago0x7b7ff840f5fe27355fd1aaaf548b4d22e04c1606OUTTrisolaris: Router0 ETH0.000002246633
0x32f4497784c5c36140ec8840c386342c1a79510915a91e934b0101b0307b22c0Swap Exact Token...800805862022-12-07 1:35:174 hrs 7 mins ago0x7b7ff840f5fe27355fd1aaaf548b4d22e04c1606OUTTrisolaris: Router0 ETH0.000007400663
0xaa2e848814023407962ecccaa5d8f43822cc4808ea65728959242a0fc66e5f8fSwap Exact Token...800805792022-12-07 1:35:084 hrs 7 mins ago0x7b7ff840f5fe27355fd1aaaf548b4d22e04c1606OUTTrisolaris: Router0 ETH0.000007400663
0xf1b2092134409f66c1ebbb1f0821d68135a46cbd0d8dddbf67057e3962b06ce3Swap Exact Token...800805722022-12-07 1:35:014 hrs 7 mins ago0x7b7ff840f5fe27355fd1aaaf548b4d22e04c1606OUTTrisolaris: Router0 ETH0.000007400663
0x5c5a8342ea0f40ff48e62f83a3f37001e7e0a4affd8ff2d8ad6b00fcaff11661Swap Exact Token...800805542022-12-07 1:34:404 hrs 7 mins ago0x7b7ff840f5fe27355fd1aaaf548b4d22e04c1606OUTTrisolaris: Router0 ETH0.000007400663
[ Download CSV Export 
Parent Txn Hash Block From To Value
Loading

Contract Name:
0

Compiler Version
0

Optimization Enabled:
0

Other Settings:
-NA-
Block Transaction Gas Used Reward
Age Block Fee Address BC Fee Address Voting Power Jailed Incoming
Block Uncle Number Difficulty Gas Used Reward
Loading
Make sure to use the "Vote Down" button for any spammy posts, and the "Vote Up" for interesting conversations.